This demonstration page uses our WeatherBlox Daily Observations layout. Learn more.

Left ArrowRight Arrow

39.51506, -84.39828

Hourly Observations for October 31, 2015

Temp ( °F °C ) Dew Point ( °F °C ) Humidity (%) Winds ( mph kmh ) Pressure ( in mb ) Visibility ( mi km ) Precip ( " mm )
12:15 am 00:15 Cloudy 49 9.6 36 2.4 61 61 S 3 6 30.18 1022 10 16 N/A
12:35 am 00:35 Cloudy 49 9.6 36 2.1 60 60 S 5 7 30.18 1022 10 16 N/A
12:55 am 00:55 Cloudy 49 9.6 36 2 59 59 SSE 3 6 30.15 1021 10 16 N/A
1:15 am 01:15 Cloudy 49 9.6 37 2.7 62 62 N N/A 30.15 1021 10 16 N/A
1:35 am 01:35 Cloudy 49 9.6 37 2.9 63 63 N N/A 30.15 1021 10 16 N/A
1:55 am 01:55 Cloudy 49 9.6 38 3.2 65 65 SSE 3 6 30.15 1021 10 16 N/A
2:15 am 02:15 Mostly Cloudy 49 9.6 38 3.6 66 66 S 5 7 30.15 1021 10 16 N/A
2:35 am 02:35 Partly Cloudy 49 9.6 38 3.5 66 66 SSE 3 6 30.15 1021 10 16 N/A
2:55 am 02:55 Clear 47 8.2 37 2.9 70 70 ESE 3 6 30.15 1021 10 16 N/A
3:15 am 03:15 Clear 44 6.9 37 2.5 74 74 ESE 5 7 30.12 1020 10 16 N/A
3:35 am 03:35 Clear 47 8.2 38 3.1 71 71 ESE 5 7 30.12 1020 10 16 N/A
3:55 am 03:55 Mostly Cloudy 49 9.6 38 3.6 66 66 S 6 9 30.15 1021 10 16 N/A
4:15 am 04:15 Cloudy 49 9.6 38 3.6 66 66 E 5 7 30.12 1020 10 16 N/A
4:35 am 04:35 Partly Cloudy 49 9.6 38 3.6 66 66 S 6 9 30.12 1020 10 16 N/A
4:55 am 04:55 Clear 49 9.6 39 4 68 68 S 5 7 30.12 1020 10 16 N/A
5:15 am 05:15 Clear 49 9.6 39 3.9 68 68 S 5 7 30.12 1020 10 16 N/A
5:35 am 05:35 Clear 49 9.6 38 3.4 66 66 N N/A 30.12 1020 10 16 N/A
5:55 am 05:55 Clear 48 8.7 37 2.8 67 67 ESE 5 7 30.12 1020 10 16 N/A
6:15 am 06:15 Clear 47 8.2 38 3.3 72 72 N N/A 30.12 1020 10 16 N/A
6:35 am 06:35 Clear 47 8.2 38 3.4 72 72 N N/A 30.12 1020 10 16 N/A
6:55 am 06:55 Clear 47 8.2 37 2.6 68 68 ESE 3 6 30.12 1020 10 16 N/A
7:15 am 07:15 Mostly Cloudy 47 8.2 37 2.8 69 69 ESE 3 6 30.09 1019 10 16 N/A
7:35 am 07:35 Partly Cloudy 47 8.2 37 3 70 70 SE 6 9 30.09 1019 10 16 N/A
7:55 am 07:55 Clear 47 8.2 37 2.8 69 69 ESE 5 7 30.09 1019 10 16 N/A
8:15 am 08:15 Sunny 47 8.2 37 2.5 68 68 SSE 5 7 30.09 1019 10 16 N/A
8:35 am 08:35 Sunny 47 8.2 37 2.5 68 68 SE 8 13 30.09 1019 10 16 N/A
8:55 am 08:55 Partly Cloudy 49 9.5 38 3.4 66 66 SE 6 9 30.09 1019 10 16 N/A
9:15 am 09:15 Mostly Cloudy 49 9.6 38 3.2 65 65 ESE 6 9 30.09 1019 10 16 N/A
9:35 am 09:35 Mostly Cloudy 49 9.6 38 3.2 65 65 S 9 15 30.12 1020 10 16 N/A
9:55 am 09:55 Cloudy 49 9.6 38 3.2 65 65 S 7 11 30.12 1020 10 16 N/A
10:15 am 10:15 Cloudy 49 9.6 38 3.2 65 65 SSE 6 9 30.09 1019 10 16 N/A
10:35 am 10:35 Cloudy 49 9.6 37 2.9 63 63 SE 7 11 30.06 1018 10 16 N/A
10:55 am 10:55 Cloudy 49 9.6 36 2.4 61 61 ESE 10 17 30.06 1018 10 16 N/A
11:15 am 11:15 Cloudy 49 9.6 37 2.5 62 62 SSE 13 20 30.06 1018 10 16 N/A
11:35 am 11:35 Cloudy 49 9.6 36 2.2 60 60 S 10 17 30.06 1018 10 16 N/A
11:55 am 11:55 Cloudy 50 9.8 36 2.2 59 59 SSE 8 13 30.06 1018 10 16 N/A
12:15 pm 12:15 Cloudy 51 10.4 37 2.6 59 59 ESE 6 9 30.03 1017 10 16 N/A
12:35 pm 12:35 Cloudy 52 11 37 3 58 58 S 6 9 30.03 1017 10 16 N/A
12:55 pm 12:55 Cloudy 52 11 38 3.1 59 59 SSE 8 13 30.03 1017 10 16 N/A
1:15 pm 13:15 Cloudy 55 12.5 39 4 56 56 N N/A 30.03 1017 10 16 N/A
1:35 pm 13:35 Cloudy 55 12.5 38 3.5 55 55 S 5 7 30.00 1016 10 16 N/A
1:55 pm 13:55 Mostly Cloudy 55 12.5 38 3.2 53 53 SSE 7 11 29.97 1015 10 16 N/A
2:15 pm 14:15 Mostly Cloudy 57 13.8 39 4.1 52 52 S 6 9 29.97 1015 10 16 N/A
2:35 pm 14:35 Cloudy 57 13.8 39 3.8 51 51 S 3 6 29.94 1014 10 16 N/A
2:55 pm 14:55 Cloudy 57 13.8 38 3.5 50 50 SSE 8 13 29.94 1014 10 16 N/A
3:15 pm 15:15 Cloudy 58 14.2 38 3.6 49 49 S 8 13 29.94 1014 10 16 N/A
3:35 pm 15:35 Cloudy 60 15.3 40 4.2 48 48 S 12 19 29.88 1012 10 16 N/A
3:55 pm 15:55 Cloudy 60 15.3 40 4.5 49 49 S 9 15 29.88 1012 10 16 N/A
4:15 pm 16:15 Cloudy 59 15 41 4.8 51 51 S 10 17 29.88 1012 10 16 N/A
4:35 pm 16:35 Cloudy 60 15.3 41 5.2 51 51 S 10 17 29.88 1012 10 16 N/A
4:55 pm 16:55 Cloudy 60 15.3 41 5.1 51 51 S 9 15 29.88 1012 10 16 N/A
5:15 pm 17:15 Mostly Cloudy 60 15.3 42 5.5 52 52 S 6 9 29.85 1011 10 16 N/A
5:35 pm 17:35 Sunny 60 15.3 42 5.7 53 53 S 10 17 29.85 1011 10 16 N/A
5:55 pm 17:55 Sunny 60 15.3 43 6.1 54 54 S 7 11 29.85 1011 10 16 N/A
6:15 pm 18:15 Partly Cloudy 60 15.3 44 6.5 56 56 S 12 19 29.83 1010 10 16 N/A
6:35 pm 18:35 Sunny 60 15.3 44 6.8 57 57 S 8 13 29.83 1010 10 16 N/A
6:55 pm 18:55 Mostly Cloudy 60 15.3 45 7.1 58 58 SSW 7 11 29.85 1011 10 16 N/A
7:15 pm 19:15 Cloudy 58 14.7 45 7.2 61 61 WSW 7 11 29.85 1011 10 16 N/A
7:35 pm 19:35 Cloudy 58 14.2 45 7.2 63 63 SW 6 9 29.88 1012 10 16 N/A
8:15 pm 20:15 Cloudy 60 15.3 46 7.9 62 62 S 9 15 29.85 1011 10 16 N/A
8:35 pm 20:35 Cloudy 60 15.3 46 7.6 60 60 S 8 13 29.85 1011 10 16 N/A
8:55 pm 20:55 Cloudy 60 15.3 46 7.7 61 61 S 7 11 29.83 1010 10 16 N/A
9:15 pm 21:15 Cloudy 60 15.3 47 8.1 62 62 S 6 9 29.85 1011 10 16 N/A
9:35 pm 21:35 Cloudy 60 15.3 47 8.1 62 62 S 7 11 29.85 1011 10 16 N/A
9:55 pm 21:55 Cloudy with Drizzle 60 15.3 47 8.2 63 63 SSW 8 13 29.85 1011 10 16 N/A
10:15 pm 22:15 Cloudy with Rain 60 15.3 48 9 66 66 S 9 15 29.85 1011 10 16 N/A
10:35 pm 22:35 Cloudy with Light Rain 57 13.9 48 8.8 72 72 S 12 19 29.88 1012 10 16 N/A
10:55 pm 22:55 Cloudy with Rain 57 13.8 51 10.5 81 81 SSW 8 13 29.88 1012 10 16 N/A
11:15 pm 23:15 Cloudy with Light Rain 56 13.6 52 11 84 84 SSW 8 13 29.88 1012 10 16 N/A

Powered by AerisWeather